TimeIST,TemperatureF,Dew PointF,Humidity,Sea Level PressureIn,VisibilityMPH,Wind Direction,Wind SpeedMPH,Gust SpeedMPH,PrecipitationIn,Events,Conditions,WindDirDegrees,DateUTC
12:00 AM,64.4,59.0,83,30.36,6.2,NNW,12.7,-,N/A,,Mostly Cloudy,330,2013-07-17 23:00:00
12:30 AM,64.4,59.0,83,30.36,6.2,NNW,15.0,-,N/A,,Mostly Cloudy,340,2013-07-17 23:30:00
1:00 AM,63,60,85,30.37,25,NNW,15.7,,,,Scattered Clouds,340,2013-07-18 00:00:00
1:00 AM,62.6,59.0,88,30.36,6.2,NNW,15.0,-,N/A,,Mostly Cloudy,340,2013-07-18 00:00:00
1:30 AM,62.6,59.0,88,30.36,6.2,NNW,12.7,-,N/A,,Mostly Cloudy,340,2013-07-18 00:30:00
2:00 AM,60.8,59.0,94,30.36,6.2,NNW,13.8,-,N/A,,Mostly Cloudy,340,2013-07-18 01:00:00
2:30 AM,60.8,59.0,94,30.36,6.2,NNW,13.8,-,N/A,,Mostly Cloudy,340,2013-07-18 01:30:00
3:00 AM,60.8,59.0,94,30.36,6.2,NNW,12.7,-,N/A,,Mostly Cloudy,330,2013-07-18 02:00:00
3:30 AM,60.8,59.0,94,30.36,6.2,NNW,10.4,-,N/A,,Mostly Cloudy,330,2013-07-18 02:30:00
4:00 AM,59.0,59.0,100,30.36,6.2,NW,9.2,-,N/A,,Mostly Cloudy,320,2013-07-18 03:00:00
4:30 AM,59.0,59.0,100,30.36,6.2,NW,9.2,-,N/A,,Mostly Cloudy,320,2013-07-18 03:30:00
5:00 AM,59.0,57.2,94,30.36,1.6,NW,10.4,-,N/A,,Mostly Cloudy,320,2013-07-18 04:00:00
5:30 AM,59.0,57.2,94,30.36,0.3,NNW,11.5,-,N/A,Fog,Fog,330,2013-07-18 04:30:00
6:00 AM,59.0,59.0,100,30.36,0.2,NW,10.4,-,N/A,Fog,Fog,320,2013-07-18 05:00:00
6:30 AM,59.0,59.0,100,30.36,0.2,NW,10.4,-,N/A,Fog,Fog,320,2013-07-18 05:30:00
7:00 AM,59,59,98,30.37,0,NNW,11.2,,,Fog,Partial Fog,330,2013-07-18 06:00:00
7:00 AM,59.0,59.0,100,30.36,0.2,NNW,11.5,-,N/A,Fog,Fog,330,2013-07-18 06:00:00
7:30 AM,59.0,59.0,100,30.36,0.5,NNW,12.7,-,N/A,Fog,Fog,340,2013-07-18 06:30:00
8:00 AM,60.8,60.8,100,30.36,3.1,NNW,11.5,-,N/A,,Scattered Clouds,340,2013-07-18 07:00:00
8:30 AM,62.6,60.8,94,30.36,4.3,NNW,10.4,-,N/A,,Partly Cloudy,340,2013-07-18 07:30:00
9:00 AM,64.4,60.8,88,30.36,6.2,NNW,10.4,-,N/A,,Partly Cloudy,340,2013-07-18 08:00:00
9:30 AM,66.2,60.8,83,30.36,-9999.0,North,8.1,-,N/A,,Clear,350,2013-07-18 08:30:00
10:00 AM,68.0,60.8,78,30.36,-9999.0,NNW,6.9,-,N/A,,Clear,340,2013-07-18 09:00:00
10:30 AM,69.8,60.8,73,30.36,-9999.0,North,6.9,-,N/A,,Clear,350,2013-07-18 09:30:00
11:00 AM,71.6,60.8,69,30.36,6.2,NNE,6.9,-,N/A,,Mostly Cloudy,20,2013-07-18 10:00:00
11:30 AM,73.4,59.0,61,30.36,6.2,East,6.9,-,N/A,,Scattered Clouds,90,2013-07-18 10:30:00
12:00 PM,73.4,59.0,61,30.36,6.2,ENE,6.9,-,N/A,,Scattered Clouds,60,2013-07-18 11:00:00
12:30 PM,73.4,59.0,61,30.36,6.2,ENE,8.1,-,N/A,,Mostly Cloudy,70,2013-07-18 11:30:00
1:00 PM,72,60,56,30.35,17,SE,8.9,,,,Partly Cloudy,140,2013-07-18 12:00:00
1:00 PM,73.4,59.0,61,30.33,6.2,SE,9.2,-,N/A,,Mostly Cloudy,140,2013-07-18 12:00:00
1:30 PM,73.4,59.0,61,30.33,6.2,SE,11.5,-,N/A,,Scattered Clouds,130,2013-07-18 12:30:00
2:00 PM,75.2,59.0,57,30.36,6.2,ESE,9.2,-,N/A,,Mostly Cloudy,120,2013-07-18 13:00:00
2:30 PM,73.4,57.2,57,30.36,6.2,ESE,9.2,-,N/A,,Mostly Cloudy,120,2013-07-18 13:30:00
3:00 PM,75.2,59.0,57,30.36,6.2,ESE,10.4,-,N/A,,Mostly Cloudy,120,2013-07-18 14:00:00
3:30 PM,75.2,59.0,57,30.36,6.2,ESE,10.4,-,N/A,,Mostly Cloudy,120,2013-07-18 14:30:00
4:00 PM,73.4,59.0,61,30.33,6.2,ESE,11.5,-,N/A,,Mostly Cloudy,120,2013-07-18 15:00:00
4:30 PM,73.4,57.2,57,30.33,6.2,SE,11.5,-,N/A,,Scattered Clouds,130,2013-07-18 15:30:00
5:00 PM,71.6,57.2,60,30.33,6.2,SE,11.5,-,N/A,,Scattered Clouds,130,2013-07-18 16:00:00
5:30 PM,71.6,55.4,57,30.33,6.2,ESE,11.5,-,N/A,,Scattered Clouds,110,2013-07-18 16:30:00
6:00 PM,71.6,55.4,57,30.33,6.2,ESE,11.5,-,N/A,,Partly Cloudy,120,2013-07-18 17:00:00
6:30 PM,69.8,55.4,60,30.33,6.2,ESE,11.5,-,N/A,,Partly Cloudy,120,2013-07-18 17:30:00
7:00 PM,70,56,53,30.33,22,ESE,11.2,,,,Scattered Clouds,110,2013-07-18 18:00:00
7:00 PM,69.8,57.2,64,30.33,6.2,ESE,10.4,-,N/A,,Scattered Clouds,110,2013-07-18 18:00:00
7:30 PM,68.0,57.2,68,30.33,6.2,ESE,10.4,-,N/A,,Scattered Clouds,120,2013-07-18 18:30:00
8:00 PM,68.0,57.2,68,30.33,6.2,ESE,8.1,-,N/A,,Scattered Clouds,120,2013-07-18 19:00:00
8:30 PM,68.0,57.2,68,30.33,6.2,ESE,9.2,-,N/A,,Scattered Clouds,110,2013-07-18 19:30:00
9:00 PM,66.2,57.2,73,30.33,6.2,ESE,5.8,-,N/A,,Scattered Clouds,110,2013-07-18 20:00:00
9:30 PM,64.4,57.2,77,30.33,6.2,Variable,3.5,-,N/A,,Scattered Clouds,0,2013-07-18 20:30:00
10:00 PM,62.6,55.4,77,30.33,6.2,East,5.8,-,N/A,,Partly Cloudy,90,2013-07-18 21:00:00
10:30 PM,62.6,55.4,77,30.33,6.2,East,5.8,-,N/A,,Partly Cloudy,80,2013-07-18 21:30:00
11:00 PM,62.6,55.4,77,30.33,6.2,East,4.6,-,N/A,,Partly Cloudy,80,2013-07-18 22:00:00
11:30 PM,62.6,57.2,82,30.33,6.2,East,4.6,-,N/A,,Partly Cloudy,80,2013-07-18 22:30:00